Change the Weather History Date:

Monday, February 25, 2013

  Actual Average (KMHK) Record (KMHK)
Temperature  
Mean Temperature 34 °F 36 °F  
Max Temperature 37 °F 49 °F 70 °F (1998)
Min Temperature 32 °F 23 °F 0 °F (2003)
Degree Days  
Heating Degree Days 30 29  
Month to date heating degree days 809  
Since 1 July heating degree days 4075  
Cooling Degree Days 0 0  
Month to date cooling degree days 0  
Year to date cooling degree days 0  
Moisture  
Dew Point 31 °F    
Average Humidity 87    
Maximum Humidity 100    
Minimum Humidity 71    
Precipitation  
Precipitation 0.01 in 0.04 in 0.01 in (2002)
Month to date precipitation 0.95  
Year to date precipitation 1.60  
Sea Level Pressure  
Sea Level Pressure 29.92 in    
Wind  
Wind Speed 14 mph (NNE)    
Max Wind Speed 21 mph    
Max Gust Speed 30 mph    
Visibility 9 miles    
Events Rain , Snow    
T = Trace of Precipitation, MM = Missing Value Source: NWS Daily Summary

Daily Weather History Graph

Daily Weather History Graph

Search for Another Location

Airport or City:

Trip Planner

Search our weather history database for the weather conditions in past years. The results will help you decide how hot, cold, wet, or windy it might be!

Date:

Astronomy

Feb. 25, 2013 Rise Set
Actual Time 7:04 AM CST 6:15 PM CST
Civil Twilight 6:38 AM CST 6:42 PM CST
Nautical Twilight 6:07 AM CST 7:13 PM CST
Astronomical Twilight 5:36 AM CST 7:44 PM CST
Moon 6:29 PM CST (2/25) 6:36 AM CST (2/25)
Length of Visible Light 12h 04m
Length of Day
11h 10m
Full, 100% of the Moon is Illuminated
Feb 25
Full
Feb 25
Full
Mar 4
Last Quarter
Mar 11
New
Mar 19
First Quarter

Hourly Weather History & Observations

Time (CST) Temp. Windchill Dew Point Humidity Pressure Visibility Wind Dir Wind Speed Gust Speed Precip Events Conditions
12:55 AM 35.2 °F 27.1 °F 31.5 °F 86% 29.97 in 10.0 mi NNE 11.5 mph - N/A   Overcast
1:55 AM 35.2 °F 28.1 °F 30.6 °F 83% 30.00 in 10.0 mi NNE 9.2 mph - N/A   Overcast
1:56 AM 35.6 °F 28.0 °F 30.2 °F 81% 30.00 in 10.0 mi NNE 10.4 mph - N/A Rain Light Rain
2:35 AM 33.8 °F 25.8 °F 30.2 °F 87% 29.99 in 10.0 mi NNE 10.4 mph - N/A Rain Light Rain
2:41 AM 33.8 °F 25.3 °F 32.0 °F 93% 29.99 in 10.0 mi NNE 11.5 mph - N/A Rain Light Rain
2:55 AM 34.2 °F 24.8 °F 31.5 °F 90% 29.98 in 10.0 mi NNE 13.8 mph - 0.00 in Rain Light Rain
3:45 AM 33.8 °F 24.8 °F 30.2 °F 87% 29.98 in 10.0 mi NNE 12.7 mph - N/A Rain Light Rain
3:46 AM 33.8 °F 24.8 °F 30.2 °F 87% 29.97 in 10.0 mi NNE 12.7 mph - N/A   Overcast
3:49 AM 35.6 °F 26.6 °F 30.2 °F 81% 29.97 in 10.0 mi NNE 13.8 mph - N/A   Overcast
3:55 AM 34.7 °F 25.9 °F 29.7 °F 82% 29.98 in 10.0 mi NNE 12.7 mph - 0.00 in   Overcast
4:55 AM 35.2 °F 26.6 °F 28.6 °F 77% 29.98 in 10.0 mi NNE 12.7 mph - N/A   Overcast
5:55 AM 35.1 °F 26.4 °F 28.8 °F 78% 29.98 in 10.0 mi NNE 12.7 mph - N/A   Overcast
6:55 AM 34.7 °F 25.9 °F 29.5 °F 81% 29.99 in 10.0 mi North 12.7 mph - N/A   Overcast
7:55 AM 34.2 °F 24.0 °F 30.6 °F 87% 29.98 in 10.0 mi NNE 16.1 mph 21.9 mph N/A   Overcast
8:55 AM 34.0 °F 24.6 °F 30.4 °F 87% 30.00 in 9.0 mi NNE 13.8 mph - N/A   Mostly Cloudy
9:55 AM 34.3 °F 22.9 °F 30.0 °F 84% 30.00 in 10.0 mi NNE 20.7 mph 25.3 mph N/A   Scattered Clouds
10:55 AM 35.4 °F 25.3 °F 30.7 °F 83% 29.98 in 10.0 mi NNE 17.3 mph - N/A   Mostly Cloudy
11:55 AM 36.0 °F 25.6 °F 30.4 °F 80% 29.97 in 10.0 mi NE 18.4 mph 27.6 mph N/A   Mostly Cloudy
12:55 PM 36.5 °F 26.7 °F 28.8 °F 74% 29.94 in 10.0 mi NE 17.3 mph - N/A   Scattered Clouds
1:55 PM 37.2 °F 27.9 °F 28.8 °F 71% 29.91 in 10.0 mi NNE 16.1 mph - N/A   Mostly Cloudy
2:40 PM 37.4 °F 27.5 °F 30.2 °F 75% 29.92 in 10.0 mi NE 18.4 mph 24.2 mph N/A Rain Light Rain
2:55 PM 36.1 °F 25.9 °F 31.5 °F 83% 29.92 in 6.0 mi NE 18.4 mph - 0.00 in Snow Light Snow
3:13 PM 35.6 °F 25.5 °F 33.8 °F 93% 29.91 in 4.0 mi NNE 17.3 mph - N/A Snow Light Snow
3:28 PM 35.6 °F 27.1 °F 35.6 °F 100% 29.90 in 9.0 mi NNE 12.7 mph - N/A Snow Light Snow
3:36 PM 35.6 °F 25.5 °F 33.8 °F 93% 29.89 in 10.0 mi NNE 17.3 mph - N/A   Overcast
3:37 PM 35.6 °F 25.9 °F 33.8 °F 93% 29.89 in 10.0 mi NNE 16.1 mph - N/A   Overcast
3:52 PM 35.6 °F 24.8 °F 33.8 °F 93% 29.87 in 10.0 mi NNE 19.6 mph 29.9 mph N/A   Mostly Cloudy
3:55 PM 36.3 °F 25.8 °F 33.4 °F 89% 29.87 in 10.0 mi NNE 19.6 mph 29.9 mph 0.01 in   Mostly Cloudy
4:55 PM 36.1 °F 27.3 °F 32.5 °F 87% 29.86 in 10.0 mi NNE 13.8 mph - N/A   Overcast
5:55 PM 36.1 °F 26.5 °F 31.8 °F 84% 29.85 in 10.0 mi NNE 16.1 mph - N/A   Mostly Cloudy
6:55 PM 36.1 °F 26.9 °F 32.0 °F 85% 29.83 in 10.0 mi North 15.0 mph - N/A   Partly Cloudy
7:55 PM 34.9 °F 24.2 °F 33.1 °F 93% 29.81 in 8.0 mi NNE 18.4 mph - N/A   Mostly Cloudy
8:55 PM 34.3 °F 24.2 °F 33.6 °F 97% 29.85 in 7.0 mi NNE 16.1 mph 23.0 mph N/A   Overcast
9:33 PM 33.8 °F 24.3 °F 32.0 °F 93% 29.85 in 8.0 mi North 13.8 mph 23.0 mph N/A Rain Light Rain
9:55 PM 34.5 °F 23.8 °F 32.9 °F 94% 29.85 in 8.0 mi North 18.4 mph - 0.00 in Rain Light Rain
10:39 PM 33.8 °F 24.3 °F 32.0 °F 93% 29.84 in 7.0 mi North 13.8 mph - N/A   Overcast
10:55 PM 33.8 °F 23.9 °F 32.4 °F 94% 29.85 in 7.0 mi NNE 15.0 mph 21.9 mph 0.00 in   Overcast
11:17 PM 33.8 °F 24.8 °F 32.0 °F 93% 29.85 in 6.0 mi NNE 12.7 mph - N/A Rain Light Rain
11:20 PM 33.8 °F 25.8 °F 32.0 °F 93% 29.85 in 6.0 mi NNE 10.4 mph - N/A Snow Light Snow
11:48 PM 32.0 °F 24.2 °F 32.0 °F 100% 29.85 in 3.0 mi North 9.2 mph - N/A Snow Light Snow
11:55 PM 32.4 °F 24.6 °F 32.4 °F 100% 29.85 in 3.0 mi North 9.2 mph - 0.00 in Snow Light Snow